Flag for Germany Weather past 2 weeks in Dorsten, North Rhine-Westphalia, Germany

Now
46 °F

Overcast.


Feels Like: 44 °F
Forecast: 40 / 51 °F
Wind: 6 mph from West

Location: Essen

Current Time: Mar 30, 2015 at 12:57:42 PM

Latest Report: Mar 30, 2015 at 12:00 PM


Visibility: 34 mi

Pressure: 29.64 "Hg

Humidity: 63%

Dew point: 34 °F

Location of DorstenLocation

Historic Weather in Dorsten — Graph

°F

Dorsten temperature yesterday

Maximum temperature yesterday: 52 °F (at 1:00 AM)
Minimum temperature yesterday: 45 °F (at 11:00 PM)
Average temperature yesterday: 49 °F

Past Weeks' High & Low Weather Summary

 TemperatureHumidityPressure
High62 °F (Mar 17, 3:00 PM)100% (Mar 19, 12:00 AM)30.39 "Hg (Mar 19, 12:00 AM)
Low34 °F (Mar 23, 4:00 AM)39% (Mar 17, 3:00 PM)29.23 "Hg (Mar 29, 8:00 PM)
Average44 °F82%30.04 "Hg
* Reported Mar 15 10:00 AM — Mar 30 11:00 AM, Dorsten, Weather by CustomWeather, © 2015

Note: Actual official high and low records may vary slightly from our data, if they occured in-between our weather recording intervals... More about our weather records

Advertising

Dorsten weather history for previous 24 hours

 ConditionsComfort  
Time TempWeatherWind HumidityBarometerVisibility
11:00 AM
Mon, Mar 30
44 °FOvercast.7 mph62%29.62 "Hg25 mi
10:00 AM43 °FOvercast.7 mph70%29.59 "Hg25 mi
9:00 AM43 °FPartly sunny.6 mph80%29.55 "Hg28 mi
8:00 AM42 °FOvercast.5 mph80%29.50 "Hg25 mi
7:00 AM41 °FOvercast.6 mph84%29.47 "Hg31 mi
6:00 AM41 °FClear.6 mph85%29.47 "Hg31 mi
5:00 AM42 °FOvercast.6 mph86%29.44 "Hg28 mi
4:00 AM41 °FPassing clouds.5 mph94%29.44 "Hg28 mi
3:00 AM44 °FLow clouds.6 mph88%29.41 "Hg22 mi
2:00 AM45 °FOvercast.6 mph81%29.41 "Hg25 mi
1:00 AM44 °FOvercast.7 mph84%29.41 "Hg25 mi
12:00 AM45 °FOvercast.6 mph85%29.38 "Hg22 mi
11:00 PM
Sun, Mar 29
45 °FPassing clouds.7 mph81%29.38 "Hg16 mi
10:00 PM47 °FDrizzle. Low clouds.7 mph82%29.32 "Hg19 mi
9:00 PM47 °FLow clouds.9 mph90%29.29 "Hg37 mi
8:00 PM51 °FOvercast.9 mph88%29.23 "Hg28 mi
7:00 PM51 °FLight freezing rain. Low clouds.12 mph95%29.26 "Hg9 mi
6:00 PM50 °FLight freezing rain. Low clouds.10 mph100%29.26 "Hg2 mi
5:00 PM50 °FLight rain. Low clouds.10 mph99%29.32 "Hg7 mi
4:00 PM50 °FDrizzle. Low clouds.9 mph96%29.38 "Hg9 mi
3:00 PM49 °FLight rain. Low clouds.8 mph97%29.44 "Hg6 mi
2:00 PM48 °FLight rain. Low clouds.8 mph99%29.50 "Hg4 mi
1:00 PM48 °FLight rain. Low clouds.7 mph96%29.56 "Hg7 mi
12:00 PM47 °FLight freezing rain. Low clouds.8 mph99%29.59 "Hg3 mi
Weather by CustomWeather, © 2015

See weather overviewHow to use our weather pages